User: anonymous   Login
Location: Domont
(49.0278°N, 2.3264°E)
Time: 03:11:05
(UTC+00:00)
Language:

CZ-4 R/B - Orbit

View from above orbital plane
View from above orbital plane
View from above satellite
View from above satellite

Ground track
Ground track

The orbit data is extracted from the following two-line orbital elements,

1 29507U 06046C   22020.59409953  .00000569  00000-0  48152-4 0  9993
2 29507  97.7506  51.2328 0046139   5.6169 354.5563 15.01295562832684
Epoch (UTC): 20 January 2022 14:15:30
Eccentricity: 0.0046139
inclination: 97.7506°
perigee height: 531 km
apogee height: 595 km
right ascension of ascending node: 51.2328°
argument of perigee: 5.6169°
revolutions per day: 15.01295562
mean anomaly at epoch: 354.5563°
orbit number at epoch: 83268

The dashed part of the orbit path shows where the satellite is in the earth's shadow,  

DLR